Theta_e
312 312 311 312 312 312 311 310 308 307 307 306 306 306 305 306 306 306 306 307 307 307 307 307 307 307 308 308 309 311 312 313 315 318 320 320 318 317 313 310 312 313 314 315 314 315 314 315 314 313 316 317 315 316 315 318 331 343 342 336 324 319 320 321 323 320 321 324 319 316 317 320 318 315 313 312 316 316 314 315 314 311 309 309 311 311 312 313
312 312 312 312 312 312 312 311 310 307 307 306 306 306 306 306 306 306 307 307 307 307 307 307 307 307 308 309 310 311 313 315 317 317 317 316 315 315 312 311 313 314 315 315 315 314 316 318 313 313 320 319 313 317 320 315 326 342 341 334 326 327 323 320 324 319 317 319 317 317 317 318 318 317 314 314 317 315 315 317 314 314 312 311 312 312 314 312
311 312 312 312 312 312 313 312 312 309 307 307 306 306 306 306 306 306 307 307 307 307 306 307 307 308 309 310 312 312 315 319 320 318 314 313 313 312 311 313 314 315 315 315 315 314 315 317 311 314 322 318 314 320 325 318 319 330 338 334 328 332 325 317 321 320 318 317 317 318 315 316 316 315 314 316 319 315 318 321 316 318 318 316 314 311 314 313
312 311 311 311 311 311 312 312 311 309 307 307 306 306 306 306 306 306 307 307 307 307 307 307 308 309 310 311 313 312 316 319 319 317 313 311 312 312 313 314 314 315 316 315 315 315 314 314 311 316 320 317 322 325 322 319 317 322 329 329 324 325 321 318 318 318 318 316 318 320 316 316 315 314 315 317 319 317 320 322 320 323 322 318 315 311 312 313
311 311 310 310 310 310 310 311 310 309 307 307 307 306 307 307 307 307 307 307 307 307 307 308 308 310 311 312 313 313 317 319 315 315 312 311 312 312 313 313 314 315 315 315 315 314 313 312 314 321 321 317 327 328 318 316 318 320 319 319 321 320 317 317 318 317 316 315 319 320 317 317 314 315 317 318 321 322 320 318 319 321 318 315 314 311 311 311
311 310 310 309 309 310 310 309 309 309 308 308 307 307 307 307 307 308 308 307 308 308 308 309 309 310 312 313 314 315 318 317 314 314 312 312 312 313 314 313 314 315 315 316 315 314 315 315 317 324 323 318 320 321 317 315 317 322 317 316 320 319 317 318 319 317 318 319 320 319 317 316 315 316 316 317 320 320 314 313 314 313 311 311 311 310 312 312
310 310 310 309 308 310 311 310 309 308 308 308 308 307 307 307 307 307 307 308 307 309 309 309 310 311 313 313 314 318 320 318 316 314 312 312 313 313 313 312 314 315 316 315 315 317 319 321 320 321 322 319 316 316 317 316 321 326 320 316 318 317 318 319 319 319 320 321 319 317 315 315 318 317 313 314 319 318 309 307 307 306 307 309 311 311 311 311
310 310 310 309 308 309 311 312 311 311 310 310 309 308 308 307 307 307 307 308 307 309 310 310 311 311 313 313 316 319 318 319 317 314 313 312 313 313 313 313 313 315 316 314 315 316 319 320 317 317 321 318 315 317 315 316 323 325 319 318 319 317 318 320 320 321 321 319 316 316 316 317 319 315 312 317 321 315 308 306 305 306 308 310 315 314 308 307
310 310 310 310 309 309 310 311 312 312 311 310 310 308 308 308 307 307 307 308 308 309 310 311 312 312 314 314 314 315 315 318 317 314 313 312 312 313 312 313 314 315 315 315 314 314 317 318 315 314 318 316 314 317 316 316 320 321 319 320 320 318 318 318 319 321 320 318 315 316 318 318 315 313 314 321 319 311 308 310 309 311 313 314 316 312 306 306
312 312 311 310 309 309 309 310 312 313 311 310 310 309 308 308 307 308 308 308 309 310 311 312 313 313 315 313 311 311 315 319 317 313 313 312 312 312 313 313 315 316 314 315 315 315 316 316 315 313 316 317 315 316 316 316 317 319 321 320 319 320 320 317 317 319 317 317 317 316 319 318 314 314 316 320 313 308 312 312 310 313 315 314 314 311 307 307
314 313 313 311 310 310 309 309 310 312 312 310 309 309 308 308 308 308 308 308 310 310 311 313 313 313 314 315 315 313 316 319 316 314 313 312 312 312 314 314 316 316 315 316 314 314 315 314 312 311 315 315 315 317 315 315 315 317 320 318 320 323 321 317 317 317 315 315 317 316 317 317 313 315 318 317 310 309 315 314 311 314 315 313 314 312 307 306
314 314 314 312 311 311 311 310 309 310 311 310 308 309 308 307 308 307 308 309 311 311 312 314 313 314 313 314 319 318 318 319 316 314 313 313 314 314 315 315 316 316 316 316 314 313 314 314 313 314 316 314 316 318 315 315 315 316 319 318 323 328 323 317 316 317 315 315 317 316 316 318 315 316 318 313 308 309 313 315 312 313 313 312 313 311 307 305
315 314 314 313 312 312 311 311 310 309 310 309 308 308 308 307 307 308 308 309 311 312 313 314 314 315 313 315 318 316 318 320 316 314 314 314 315 316 316 316 314 315 316 316 314 313 313 314 314 316 316 317 319 314 315 318 315 317 317 317 324 328 324 316 314 316 314 316 317 316 319 326 325 319 316 310 308 311 312 313 312 312 312 312 311 311 310 305
315 314 314 313 313 313 312 312 311 309 309 309 308 308 307 307 307 308 309 310 312 313 314 314 315 315 313 315 316 315 317 319 318 317 315 316 316 317 316 314 313 314 315 316 314 313 314 313 313 315 313 317 317 311 323 328 322 320 315 322 327 320 327 325 315 316 315 315 316 315 318 326 328 322 316 309 308 312 314 313 311 311 311 311 311 310 310 306
316 315 315 314 314 314 313 313 311 310 309 308 308 307 307 308 308 309 311 313 313 314 315 314 315 316 317 317 314 315 317 318 319 317 316 317 316 316 315 313 314 314 314 314 314 313 314 313 315 318 313 314 316 317 331 331 329 330 315 327 332 318 332 335 315 316 317 314 312 315 320 322 322 320 313 307 307 311 314 313 309 310 310 309 310 308 309 307
316 316 315 315 315 314 314 313 312 311 309 308 308 308 308 310 311 312 313 313 314 315 315 314 313 314 318 317 314 316 317 318 319 317 317 317 316 316 314 314 314 314 315 313 314 314 314 317 316 315 315 316 323 333 339 328 330 337 321 324 333 321 328 330 316 316 316 315 312 313 321 323 321 317 309 306 307 310 313 313 310 309 308 308 308 307 308 308
317 317 316 315 315 314 314 313 312 311 309 309 308 309 310 312 313 313 314 314 317 317 315 315 313 311 312 313 315 318 317 317 318 317 316 316 316 316 313 314 313 312 314 312 314 314 313 319 316 315 319 320 325 334 335 324 325 333 322 321 331 326 323 325 324 318 313 315 315 313 316 319 319 316 312 309 307 309 312 313 310 308 307 307 307 307 307 307
318 317 316 316 315 314 314 313 313 312 310 309 309 311 312 313 314 314 314 316 316 313 312 313 311 311 311 311 315 318 316 316 318 316 316 317 316 315 314 313 311 311 316 315 314 315 316 321 322 323 324 320 322 327 325 323 328 332 326 324 328 324 321 324 327 319 312 314 316 315 316 316 317 314 315 313 308 310 313 311 309 308 307 307 306 307 307 306
319 318 317 316 315 315 314 313 313 312 310 309 311 314 312 312 314 315 315 315 314 310 311 314 312 312 313 313 316 316 315 316 317 316 316 318 315 314 314 312 314 316 319 319 315 317 322 324 324 324 323 321 321 322 322 324 330 334 335 335 331 326 325 327 327 323 316 315 317 317 316 317 316 315 316 315 309 309 311 309 308 309 307 307 306 306 306 307
320 319 318 317 316 315 314 313 313 312 311 310 314 313 309 313 313 311 316 318 317 313 313 316 314 314 316 318 318 316 316 316 316 316 316 316 314 314 315 312 319 320 319 324 319 316 322 323 323 324 323 323 321 320 321 323 325 328 332 333 330 327 328 327 326 323 315 314 321 319 316 317 316 316 316 314 311 310 311 310 308 308 308 307 307 306 306 306
321 320 319 318 317 316 315 313 312 313 311 311 314 312 311 315 310 309 317 320 317 312 313 316 313 313 315 316 317 315 318 318 315 316 315 315 314 315 316 316 320 320 319 326 321 315 320 323 324 324 321 319 320 319 319 322 322 322 324 324 326 327 326 324 321 320 315 315 323 321 316 316 314 314 313 313 314 314 313 312 311 309 308 307 307 306 306 306
321 321 320 318 317 316 315 313 312 313 312 311 313 314 314 314 312 312 314 317 317 313 313 315 313 315 315 314 316 315 318 321 318 317 316 315 315 315 318 319 321 322 320 321 321 319 321 323 322 319 318 318 319 317 316 319 318 319 322 320 324 326 323 323 321 317 314 315 324 324 318 317 316 314 313 313 314 313 312 312 312 311 310 308 307 307 306 307
322 321 321 319 318 316 315 314 313 313 312 311 312 313 314 315 315 314 312 314 320 317 315 316 315 318 318 314 316 316 318 322 322 320 316 314 316 317 318 319 320 322 320 320 323 324 324 327 322 317 319 320 319 319 317 318 318 320 322 320 324 325 322 325 324 317 315 316 321 321 318 317 315 315 315 314 313 312 312 312 311 311 311 310 309 308 307 307
323 322 321 321 318 316 315 313 313 312 311 311 311 312 316 317 315 315 315 315 318 318 317 315 313 316 318 315 314 318 319 319 321 319 315 315 317 317 317 320 321 321 319 320 322 323 324 325 318 316 320 320 320 322 320 320 322 324 323 320 323 324 323 325 324 321 322 322 319 319 322 323 321 320 318 318 319 316 313 313 313 311 310 310 310 309 308 307
323 322 321 321 319 317 315 314 313 313 312 311 311 311 315 317 315 313 314 314 314 317 315 312 313 316 315 313 314 319 319 318 321 318 314 315 316 316 317 318 320 321 319 318 318 319 322 319 318 320 319 318 321 323 324 325 324 326 326 322 321 323 323 323 322 322 326 330 323 319 327 335 334 329 326 325 326 324 317 316 316 314 311 310 310 309 308 308
322 323 322 321 319 317 315 314 313 312 313 312 310 310 315 317 315 312 312 315 313 314 314 312 315 316 312 314 316 317 317 318 318 315 313 314 315 316 317 317 317 319 318 318 318 319 320 317 322 328 322 320 322 323 326 324 321 326 328 324 320 320 321 322 322 322 328 332 322 317 325 333 330 327 331 332 331 330 325 321 319 316 314 312 310 309 309 308
322 322 322 321 320 317 315 315 313 312 314 313 309 311 315 317 316 312 311 315 313 313 317 314 312 313 314 315 314 313 314 316 316 315 314 314 314 315 317 318 316 317 317 318 318 320 320 318 320 325 326 324 322 324 325 320 323 329 326 323 321 319 321 324 323 324 327 327 323 321 323 325 325 323 329 330 326 327 324 321 321 317 316 315 312 309 309 308
321 321 321 321 319 318 316 314 313 312 314 313 310 312 316 316 314 312 309 311 311 312 317 315 311 311 315 313 312 314 315 316 318 317 313 313 315 316 317 319 318 318 318 318 318 317 319 323 321 321 324 324 325 330 327 319 324 328 321 320 322 322 325 327 326 326 324 323 329 329 321 322 328 329 329 325 322 326 325 322 322 319 318 318 315 312 308 307
321 321 320 320 319 318 316 314 313 313 312 313 312 313 316 315 313 313 311 310 312 316 315 314 313 313 315 313 313 317 318 318 319 316 313 313 314 316 318 319 318 318 316 316 318 318 318 320 319 320 322 323 327 331 324 319 322 320 317 321 323 324 327 329 330 329 326 324 328 328 323 324 328 329 329 324 324 327 324 322 321 319 320 319 318 315 309 307
320 320 320 320 319 317 316 314 313 313 312 313 313 313 316 315 311 309 310 310 314 320 315 313 316 316 317 315 315 317 318 319 318 316 316 316 315 316 316 316 319 322 319 317 320 321 318 314 314 320 321 321 325 322 316 319 320 317 322 329 329 330 330 331 330 327 327 328 326 326 325 325 326 330 330 325 327 331 325 324 325 325 327 326 322 317 310 308
320 320 320 319 318 316 316 314 314 313 313 312 313 314 315 315 312 310 310 309 310 316 316 315 316 316 317 317 317 317 318 320 317 316 318 317 317 319 317 316 320 324 322 321 322 320 318 316 317 320 319 320 325 321 316 317 316 320 333 334 330 332 330 329 330 327 328 330 328 324 322 323 325 330 330 325 327 329 325 325 328 330 334 333 327 318 310 308
319 320 319 319 318 317 316 315 315 314 313 313 314 316 315 315 315 315 313 311 312 317 319 319 317 317 317 317 317 317 318 320 318 317 319 319 318 318 318 318 320 322 322 322 322 320 320 323 322 319 316 319 326 325 320 317 316 323 332 329 327 330 329 329 330 328 328 327 321 318 320 322 323 324 324 324 325 325 322 320 322 325 327 326 327 321 311 307
317 318 319 319 318 317 316 316 316 314 313 314 316 317 316 315 316 316 315 314 317 320 320 321 319 317 317 317 318 316 317 320 318 318 318 319 319 317 317 320 319 321 323 320 319 321 323 324 322 318 317 319 323 323 322 321 320 322 325 327 328 329 331 336 333 326 326 324 317 315 319 324 325 324 323 320 320 323 321 319 318 319 318 318 321 320 313 308
315 316 317 318 318 317 316 316 316 314 314 315 317 318 317 316 317 317 315 314 318 323 322 321 318 316 316 320 320 317 317 319 318 319 319 318 320 319 319 320 318 322 328 322 319 322 322 322 322 319 321 321 319 320 325 325 321 320 323 325 327 331 335 338 334 329 329 329 321 316 321 330 332 330 325 320 320 322 321 320 318 316 314 314 315 316 314 309
314 314 315 316 317 317 316 316 316 314 314 315 317 318 317 317 318 318 316 313 319 326 322 318 319 318 318 321 321 317 317 320 317 319 320 319 320 319 318 319 316 322 327 320 320 322 319 324 326 320 319 320 318 320 325 324 320 320 322 323 325 328 327 326 327 326 326 328 326 321 324 330 329 325 322 323 325 323 320 319 319 317 314 314 316 314 313 310
314 314 314 315 316 317 316 316 315 314 315 315 316 317 317 317 317 318 317 313 317 325 321 318 322 321 319 320 321 317 317 320 319 319 320 319 320 319 318 319 316 317 319 316 322 324 321 325 323 316 317 318 318 321 322 322 322 320 320 323 323 321 322 324 324 320 319 323 327 325 326 328 326 323 322 322 323 322 321 321 322 320 316 316 318 314 311 309
314 313 314 315 315 317 316 316 315 314 315 315 315 316 316 316 316 317 317 315 317 322 321 320 322 322 320 320 321 319 318 321 319 319 321 319 321 321 318 319 318 315 316 316 322 324 323 326 321 316 320 316 313 320 322 319 320 322 323 323 319 318 324 328 327 326 326 327 328 324 326 329 327 328 326 321 321 322 321 321 320 320 319 320 319 314 311 308
314 314 314 314 314 316 317 315 314 315 316 315 315 316 316 316 316 316 318 318 318 320 320 320 319 320 321 320 321 320 318 320 319 319 321 319 320 322 318 319 320 316 316 316 320 323 321 323 322 317 319 315 312 319 323 317 315 321 326 323 322 326 329 325 326 331 331 330 330 326 323 325 324 326 325 322 326 331 326 322 321 320 319 320 319 316 312 307
314 314 314 314 313 315 317 315 314 315 318 317 315 316 316 315 315 315 318 317 317 320 319 318 318 319 321 320 321 320 318 319 319 319 321 319 320 321 317 318 320 317 316 316 319 324 321 320 324 317 314 316 315 318 324 320 315 316 319 318 320 325 326 325 325 327 329 329 331 329 326 326 325 324 325 323 325 330 329 329 328 324 322 320 318 317 314 308
314 313 315 314 312 314 316 315 314 316 318 317 315 315 315 315 314 314 317 315 316 320 319 317 319 320 321 320 320 320 319 319 319 318 320 319 319 321 317 317 320 318 316 315 317 323 322 319 323 318 313 317 320 320 321 320 318 318 320 319 320 320 322 325 323 323 328 330 331 331 328 327 328 324 324 325 325 326 329 330 330 330 331 326 317 314 314 310
313 314 314 314 314 315 315 314 315 317 317 317 316 315 314 315 315 314 315 314 315 319 318 317 320 319 320 321 319 320 319 318 318 318 319 318 318 320 318 317 320 319 317 317 317 320 321 322 325 323 318 320 323 320 317 319 319 319 320 320 320 320 321 323 323 322 323 325 330 332 327 326 332 327 322 325 330 328 324 324 329 334 331 323 316 314 314 310
312 313 314 315 315 316 315 314 315 316 317 317 316 315 314 315 316 315 314 314 314 316 317 318 319 318 319 321 320 320 320 319 318 317 319 318 317 319 320 317 318 318 317 318 318 318 323 327 327 325 322 321 320 316 314 318 319 317 319 321 320 319 321 325 326 324 323 323 324 326 325 326 327 325 322 323 326 323 318 320 329 331 324 318 316 316 314 310
310 312 313 314 316 315 315 316 315 315 316 317 316 316 315 314 316 315 314 314 314 315 317 318 318 318 318 319 320 321 320 320 319 318 319 319 317 318 320 317 316 317 317 318 318 318 322 325 324 324 325 324 322 318 314 315 316 316 319 321 320 319 321 325 327 325 326 326 324 323 326 324 320 322 324 320 319 320 319 320 324 323 321 321 318 316 315 310
310 311 312 313 315 316 317 318 316 315 316 316 316 317 315 314 315 315 315 315 314 315 316 316 317 318 318 319 320 320 320 321 320 319 318 320 320 319 319 318 316 317 318 319 319 318 320 324 324 326 327 327 325 323 319 315 315 319 322 321 320 320 320 322 323 322 325 328 326 325 327 323 320 322 323 319 319 322 322 320 320 320 323 324 319 317 316 311
309 310 311 312 313 315 317 317 316 316 316 316 317 317 316 316 316 315 315 315 314 315 315 314 317 319 319 320 320 320 321 320 320 320 319 320 322 320 319 319 316 316 317 318 318 317 320 323 323 323 325 325 324 325 325 320 317 320 324 321 319 320 320 320 322 322 324 325 324 324 325 322 320 320 320 319 321 324 324 323 322 321 322 322 319 318 316 312
308 309 311 313 313 314 316 316 316 316 316 316 317 316 316 316 316 315 315 315 315 315 315 316 318 318 319 320 319 320 321 319 320 322 322 322 322 321 319 318 317 317 317 319 319 321 324 324 321 321 323 322 322 324 324 322 319 320 322 320 318 318 318 319 322 323 324 325 324 322 322 322 321 320 321 323 326 327 327 326 326 323 321 322 320 317 314 311
306 308 311 313 314 314 315 315 316 316 315 315 316 316 316 316 316 316 316 315 315 315 315 316 318 318 318 319 319 320 321 320 321 322 322 321 321 321 319 317 317 317 318 319 319 324 328 325 321 322 323 321 322 324 322 322 322 321 321 320 318 318 318 319 321 322 324 327 326 323 322 323 322 320 322 325 328 329 328 328 329 327 324 326 324 317 314 312
305 307 310 312 313 314 315 316 316 315 315 315 315 315 315 315 315 316 316 316 316 316 316 317 318 318 318 318 319 320 321 322 322 321 321 320 320 321 319 317 317 318 319 319 319 322 327 325 322 323 323 322 321 323 323 324 323 322 321 320 319 318 318 319 320 320 322 325 324 323 325 325 321 320 321 323 324 324 322 321 322 321 322 324 323 319 319 317
305 306 307 308 310 312 312 313 314 315 315 315 315 314 315 315 315 315 316 316 316 316 317 318 318 318 318 318 318 319 320 321 322 321 320 320 321 323 322 320 319 317 318 320 320 320 323 326 326 324 322 323 321 322 324 324 322 322 321 320 320 319 318 318 319 319 320 322 322 322 324 324 320 319 320 322 324 322 319 318 318 318 319 320 321 321 322 320
305 305 306 306 308 309 309 309 311 314 315 315 315 315 314 315 315 314 315 316 316 316 317 317 318 317 318 318 318 318 319 320 320 321 320 320 322 322 322 324 323 318 316 318 319 318 318 323 327 324 323 324 321 321 324 323 321 322 321 320 320 319 318 318 318 318 319 320 320 321 322 322 320 320 319 320 323 323 321 320 319 317 317 318 319 319 319 318
303 304 304 305 305 307 309 309 309 312 314 315 315 315 315 315 315 314 315 315 316 316 316 317 317 317 317 318 318 318 318 318 318 320 321 321 321 322 322 323 323 321 318 316 317 318 317 320 323 323 324 324 322 323 324 321 320 320 321 321 320 319 318 317 317 318 318 319 320 320 321 320 319 321 320 319 321 323 321 320 319 318 317 317 317 317 317 317
302 302 303 304 304 306 308 309 309 310 312 314 314 314 315 315 314 315 315 315 315 316 316 316 316 317 318 318 318 317 317 317 319 322 324 321 320 323 324 322 320 319 318 316 316 317 318 320 322 323 324 323 322 324 322 320 321 322 322 321 319 318 318 317 317 317 317 318 320 320 320 319 318 319 319 319 320 322 320 318 317 318 318 317 316 315 316 315
Wind_Speed
1 1 1 1 0 1 0 0 2 2 2 3 3 4 4 4 4 4 5 4 4 4 4 4 4 5 6 6 7 6 6 6 2 1 0 2 2 2 1 1 2 4 5 5 7 4 4 7 10 12 6 3 4 3 3 2 3 5 4 4 3 4 4 5 7 7 4 4 6 5 4 8 4 1 2 2 7 4 2 4 3 5 4 1 1 4 10 16
2 2 1 1 1 1 1 1 0 1 3 3 3 4 4 5 5 5 5 4 4 5 4 4 4 5 5 6 6 7 7 5 1 0 2 2 2 2 2 2 3 4 6 6 9 7 5 5 8 9 6 3 3 3 3 2 3 4 3 4 3 5 4 5 7 6 3 3 6 4 4 6 6 5 3 2 1 2 2 2 5 5 3 1 2 5 9 14
3 2 2 1 1 1 1 1 1 1 2 3 3 3 4 5 5 5 5 4 5 4 4 5 5 5 5 6 6 7 7 3 1 2 1 1 3 4 4 4 4 6 7 7 8 7 3 3 4 5 5 3 2 3 3 4 2 2 4 4 4 6 4 4 6 7 5 4 7 4 2 2 3 4 2 4 4 1 3 4 1 3 6 5 3 4 9 14
3 2 2 1 1 0 1 1 1 1 2 2 3 3 4 4 5 5 5 4 4 4 4 4 5 5 5 6 6 7 6 3 1 1 2 3 4 6 5 5 6 7 7 7 6 5 3 1 2 4 4 2 4 3 3 3 1 2 4 3 5 4 1 3 6 6 4 5 7 4 4 1 3 2 2 6 6 3 7 8 8 9 10 9 6 6 10 14
2 2 2 1 1 1 1 1 1 1 2 2 3 4 4 4 4 5 4 4 3 3 4 4 5 5 5 6 6 6 5 4 1 2 4 4 6 6 6 6 6 6 7 7 5 4 3 3 5 6 4 2 5 4 1 3 2 3 1 3 5 4 1 3 4 3 3 5 5 6 4 3 2 1 3 8 6 6 6 7 9 9 10 12 9 9 10 12
2 2 2 1 1 2 2 1 2 2 1 1 3 4 4 4 4 4 4 3 3 3 3 4 4 5 5 5 5 4 3 2 3 4 4 5 7 6 5 4 5 6 7 7 6 5 4 5 6 4 3 3 3 2 1 4 3 3 1 1 3 3 2 2 2 3 4 7 6 6 4 2 3 1 2 8 8 6 4 5 7 6 10 13 11 10 9 9
2 1 1 2 1 2 3 3 3 4 3 1 1 2 3 3 3 3 3 3 3 2 3 3 4 5 5 4 4 4 3 2 3 5 6 6 7 5 4 2 4 6 5 7 8 5 4 7 5 3 4 3 0 1 1 5 5 6 1 1 1 3 3 1 2 3 5 7 5 4 3 3 5 3 1 5 9 4 4 3 4 8 13 14 10 8 8 9
3 2 2 3 2 1 2 3 4 5 5 4 3 1 1 2 2 2 2 2 2 2 2 3 4 4 5 3 2 4 2 3 3 7 7 7 7 5 3 1 3 5 5 8 8 3 4 6 3 3 4 2 2 2 3 4 5 5 3 2 0 1 3 1 3 1 3 4 3 4 3 3 5 3 0 7 8 2 2 4 7 10 12 11 8 7 8 9
4 3 3 3 3 2 2 3 3 4 4 5 5 4 3 1 1 1 1 2 1 2 2 2 4 4 4 2 5 2 3 2 5 9 8 7 7 5 3 0 3 4 4 7 6 5 3 2 2 2 3 2 3 2 2 2 1 1 4 2 1 1 4 1 1 1 1 1 3 4 3 5 2 1 4 7 6 2 4 6 6 8 9 7 7 7 8 8
4 4 5 4 3 4 4 4 4 4 4 4 5 5 4 2 1 0 1 1 1 1 1 2 3 3 2 2 5 1 3 1 6 9 8 8 6 5 3 1 4 3 3 5 6 7 4 3 3 3 5 2 2 1 2 2 1 2 4 2 2 2 4 1 3 3 1 1 2 5 5 5 3 1 4 5 3 4 6 6 4 7 7 7 5 6 9 9
4 4 6 5 4 6 7 7 6 5 5 5 5 5 4 3 1 1 1 1 1 1 1 2 3 3 2 3 5 3 3 1 7 9 8 8 5 4 2 2 3 2 2 4 6 6 5 4 4 4 2 1 1 3 2 1 1 2 3 0 3 5 4 2 2 4 1 1 5 7 4 4 4 1 6 4 4 5 7 6 4 6 6 6 6 6 7 10
3 3 5 5 5 6 8 9 8 7 7 6 6 6 5 3 2 2 2 2 1 0 1 2 3 2 2 3 3 5 3 1 6 8 8 7 5 4 1 2 1 2 1 3 4 4 4 2 5 5 0 2 2 2 0 1 2 2 4 1 5 8 5 3 2 3 4 2 5 6 2 4 3 7 6 2 5 4 6 7 5 6 6 5 6 5 6 9
3 3 3 4 5 6 7 9 9 8 8 8 8 6 5 4 3 3 3 2 2 1 0 1 2 2 2 0 3 4 4 3 5 8 8 7 5 4 2 1 1 2 2 4 4 4 4 1 5 5 2 5 2 0 2 3 3 1 3 2 4 7 5 3 1 2 5 3 4 4 2 6 8 10 5 2 6 6 5 7 6 6 5 5 6 5 6 9
3 3 3 3 4 5 7 9 10 9 9 9 9 7 5 3 2 3 3 3 2 2 1 2 1 2 3 3 4 3 6 5 5 7 8 7 6 4 2 2 2 2 2 4 5 5 4 2 6 6 2 4 2 1 4 6 4 1 1 2 3 2 4 6 1 4 6 2 2 4 3 6 9 10 5 4 7 8 8 8 7 7 6 6 6 6 6 8
4 4 3 3 4 5 7 8 9 10 9 8 8 6 5 1 1 2 3 3 3 2 2 3 2 3 2 3 4 3 6 5 5 7 7 8 6 4 3 3 2 3 3 4 5 5 5 3 5 5 1 2 4 4 4 4 3 3 1 3 3 1 5 8 2 6 5 0 1 4 3 7 8 9 4 4 6 7 9 8 7 8 8 7 6 7 7 7
6 4 4 4 4 5 6 7 8 9 8 8 7 5 3 0 1 2 3 3 4 3 3 3 3 4 2 2 3 4 5 5 5 7 8 8 6 3 4 5 3 4 4 4 4 4 6 6 4 3 1 2 5 5 3 3 4 4 0 3 2 2 3 6 3 3 2 2 0 1 3 4 4 4 2 4 6 6 7 8 8 9 9 8 7 7 6 6
7 6 5 4 4 4 5 7 7 7 7 6 6 4 1 0 2 3 4 6 6 5 5 3 3 4 0 2 3 4 3 5 6 8 9 8 6 4 6 5 3 5 5 5 4 3 6 6 1 0 2 3 3 5 3 2 4 4 1 2 4 3 2 3 4 3 1 3 2 2 3 7 7 4 0 5 6 6 8 10 10 9 8 7 7 7 7 7
8 7 6 5 4 4 4 6 7 7 6 4 3 1 2 2 2 4 7 9 8 6 4 1 2 2 3 3 2 2 2 4 6 8 10 8 6 5 4 3 4 6 5 5 4 3 4 4 2 1 3 3 2 5 3 5 4 3 3 2 3 3 3 4 4 2 3 2 3 3 4 11 13 10 5 6 7 8 10 11 8 8 8 8 8 8 8 8
9 8 7 6 5 4 4 5 6 6 5 3 1 4 4 4 3 3 5 6 5 3 1 3 3 3 3 3 1 2 4 6 7 8 9 7 7 6 4 5 5 6 4 1 1 2 1 3 4 2 1 2 4 6 8 8 6 6 6 4 4 4 3 5 5 5 4 3 4 7 7 11 12 12 9 6 7 8 10 9 7 7 8 8 9 9 9 11
10 9 8 7 6 5 4 4 5 6 4 1 4 5 3 2 3 1 1 2 4 3 2 4 5 4 1 1 2 6 7 5 4 5 8 8 9 8 4 4 6 5 3 3 2 1 3 3 2 5 7 8 9 9 7 5 6 6 5 4 4 4 4 5 4 6 2 4 6 8 8 11 11 13 11 4 6 8 10 10 10 10 9 9 10 11 12 12
12 11 10 8 7 6 5 4 4 4 4 3 5 4 2 3 3 2 2 4 9 8 4 3 2 1 0 2 7 9 6 3 2 3 9 9 10 8 1 2 4 1 2 3 3 2 4 4 8 10 9 8 8 7 5 5 4 4 4 3 3 4 5 7 4 5 1 3 6 5 6 12 12 13 11 3 6 9 12 12 14 14 12 10 11 13 12 9
14 13 12 10 7 6 5 4 3 4 4 4 5 2 2 3 4 2 2 2 10 11 8 3 3 4 3 3 8 8 4 2 1 3 9 8 6 6 1 3 5 3 1 2 3 2 2 4 12 9 5 5 3 4 6 4 2 2 3 2 3 3 4 6 4 4 1 4 4 3 4 10 12 11 11 8 8 11 12 13 15 13 12 12 12 13 11 8
16 15 13 11 9 7 5 4 4 4 5 6 7 4 2 3 4 3 3 1 5 5 6 6 4 5 3 1 8 9 3 4 4 5 11 9 3 4 4 5 5 4 3 4 5 4 2 6 11 6 8 7 3 4 6 3 1 3 3 3 4 3 2 4 4 4 1 2 2 3 4 9 12 9 10 12 10 10 11 12 13 11 12 14 13 11 11 12
19 17 15 13 10 8 6 5 5 6 8 9 12 11 6 6 5 3 2 0 4 4 4 8 6 5 7 4 10 12 3 4 5 5 13 12 5 3 5 5 5 5 5 8 8 6 6 6 3 6 8 8 5 4 6 5 3 4 5 6 5 4 6 6 4 4 3 3 2 2 5 8 8 7 9 8 5 8 10 9 12 13 12 12 10 9 11 13
23 20 18 15 12 10 9 7 7 9 8 8 14 16 10 8 5 4 2 2 3 5 3 5 3 6 11 8 11 11 2 3 5 7 15 15 9 4 3 3 4 5 8 7 5 5 7 5 4 7 5 6 7 4 5 7 4 5 5 10 10 9 8 6 2 4 4 5 3 2 3 6 5 5 8 5 5 8 8 7 13 15 11 9 10 11 10 10
26 23 20 18 14 13 11 6 9 11 8 9 12 13 13 9 6 4 3 3 4 4 1 4 3 8 12 8 9 7 2 4 5 9 17 17 10 5 3 2 2 4 7 5 3 3 5 3 5 7 6 6 6 4 6 7 5 3 5 9 11 8 6 5 2 2 0 4 3 2 3 6 7 6 7 5 6 10 9 8 12 13 9 8 10 10 9 9
25 26 25 23 18 18 12 4 8 10 6 7 9 13 15 11 6 3 3 3 5 3 4 3 2 7 9 9 11 9 3 5 2 7 12 13 9 3 3 5 2 3 4 4 2 3 4 4 4 6 5 6 5 4 6 8 8 3 5 5 8 8 7 6 6 4 3 3 4 1 3 4 7 7 5 3 6 11 11 12 13 12 10 9 10 10 10 11
21 27 29 26 23 23 16 8 12 13 6 2 7 18 17 11 7 3 4 0 4 2 4 2 1 4 3 6 11 7 2 2 5 3 3 9 8 2 2 8 6 7 5 6 5 4 4 7 7 8 5 4 6 5 7 10 6 5 3 6 6 6 6 5 5 3 1 3 5 5 2 3 7 6 5 3 4 9 12 14 15 14 11 10 11 11 10 10
18 26 31 30 26 26 21 14 12 12 10 3 10 21 18 12 7 4 4 3 3 1 2 1 3 1 3 5 6 2 2 2 2 2 2 5 5 3 3 7 5 7 5 4 6 3 1 5 7 8 6 6 5 2 8 11 5 4 5 7 5 5 5 4 5 3 2 2 8 8 4 3 6 4 4 3 2 8 11 11 12 11 10 9 9 9 9 8
15 22 31 31 28 29 23 17 15 11 7 5 10 20 17 8 4 4 3 4 1 1 0 2 3 2 7 9 3 1 2 2 1 1 3 1 1 4 1 3 6 5 2 3 2 3 2 1 2 4 4 5 4 2 2 6 6 5 6 6 6 6 5 3 3 3 2 3 9 9 8 6 6 3 5 4 4 7 8 8 9 9 8 8 8 6 6 6
12 16 26 31 32 32 22 14 21 17 7 6 13 18 11 3 2 5 6 1 1 1 1 1 1 4 11 13 6 2 2 1 1 5 3 1 2 3 0 1 4 4 1 4 4 3 4 2 2 2 2 4 6 5 3 2 4 5 4 5 4 4 4 4 4 3 1 6 6 4 5 8 7 6 5 6 6 7 8 8 10 10 9 7 6 5 5 6
11 11 20 31 33 33 24 15 24 25 12 11 15 10 4 2 2 5 4 1 1 4 4 4 3 6 11 11 7 7 5 2 3 7 6 4 5 6 6 6 5 3 2 7 4 3 2 4 3 3 1 4 6 4 4 4 2 4 4 6 4 2 3 3 3 0 3 7 4 0 3 4 8 9 8 9 10 11 10 9 10 10 10 7 5 5 5 5
13 10 16 29 33 32 30 22 23 25 18 17 14 4 1 5 6 8 7 4 3 2 3 4 3 7 11 8 5 5 4 2 5 5 4 5 6 7 7 6 6 4 2 5 3 1 3 5 3 1 2 3 8 7 2 1 4 5 5 6 5 2 0 3 4 2 4 6 3 1 1 3 5 6 11 15 15 13 10 9 9 10 10 8 6 5 5 6
14 12 12 24 33 34 33 27 24 26 24 18 11 4 4 5 6 10 13 11 4 2 2 4 6 6 8 5 4 6 4 3 6 5 3 6 6 7 7 7 6 3 3 3 3 5 5 6 5 7 3 6 10 9 5 6 5 5 4 5 5 5 4 4 4 4 5 4 4 2 2 4 3 3 8 11 10 9 9 9 9 10 9 6 6 5 5 6
14 15 13 16 27 34 33 28 26 30 26 14 7 7 9 8 5 8 11 9 2 3 3 3 7 7 5 2 3 6 5 3 5 5 4 7 7 8 8 9 10 6 4 5 2 4 5 7 6 3 1 9 11 5 5 7 3 3 2 4 4 6 5 2 3 5 2 3 4 3 3 5 4 6 8 7 7 8 7 9 10 12 9 3 5 7 6 7
12 14 14 14 22 31 32 28 28 32 24 10 5 6 9 9 6 5 6 5 4 3 5 3 5 4 6 3 2 6 4 2 5 5 3 4 5 7 8 7 12 13 10 8 3 3 4 5 4 1 2 5 6 4 4 4 4 2 3 4 4 4 6 2 3 1 3 3 5 3 5 5 3 7 8 6 9 10 8 9 10 11 8 4 7 7 6 6
10 10 12 16 19 25 30 29 31 32 18 7 7 8 8 8 4 3 4 4 4 6 7 3 3 5 7 4 4 7 4 2 5 5 4 4 3 6 9 6 9 16 15 8 3 3 5 3 4 2 2 3 1 3 3 3 3 6 4 6 2 2 2 2 2 3 3 4 5 2 5 4 1 5 5 0 7 11 11 11 10 11 8 7 10 8 6 7
9 7 10 18 21 22 26 31 33 25 10 5 8 8 7 8 8 6 4 3 5 7 7 7 6 6 7 6 5 7 6 3 6 6 4 4 5 8 12 6 5 15 17 8 3 3 4 3 4 1 3 3 3 3 2 5 2 5 4 5 4 2 1 2 2 2 1 3 5 3 4 4 5 6 3 3 8 10 11 11 9 11 10 9 11 8 6 6
8 5 7 15 22 22 25 31 28 13 5 7 8 7 7 10 11 7 3 2 4 7 9 9 6 4 5 7 6 6 8 7 8 7 5 5 5 7 14 10 6 12 15 11 6 3 3 4 3 1 1 1 2 2 4 1 2 3 2 2 2 2 3 3 3 3 3 3 3 3 3 3 6 7 7 10 10 9 9 9 8 11 11 10 11 7 5 6
6 4 3 7 16 23 30 29 17 6 5 8 8 8 8 9 8 7 6 4 2 3 7 8 6 5 5 7 5 5 8 8 8 8 6 7 6 5 10 12 6 6 11 12 8 2 2 4 4 2 2 1 2 4 8 10 7 4 4 5 3 1 2 1 1 2 4 2 2 3 6 6 5 5 9 11 10 10 10 8 7 9 10 10 9 6 5 6
3 4 4 9 17 27 30 18 6 5 6 7 9 10 8 5 5 9 11 6 2 2 4 5 6 6 5 6 5 5 6 6 7 7 5 7 8 6 7 11 9 7 8 8 8 6 3 4 4 2 1 4 5 4 6 10 8 7 7 9 9 7 5 3 3 1 2 2 4 2 7 9 4 4 7 7 7 9 8 7 7 8 9 9 7 5 6 6
4 5 4 14 27 32 21 6 4 7 7 8 11 8 5 3 3 7 10 7 5 4 1 2 5 6 5 6 6 5 6 5 7 7 5 8 11 8 6 10 13 13 11 9 12 10 4 3 4 3 4 6 6 3 2 4 3 2 3 5 7 7 6 6 5 3 2 2 3 4 4 10 3 4 5 5 4 5 4 6 7 8 8 8 8 5 5 6
5 5 2 15 36 35 13 4 6 5 6 10 11 6 4 4 4 5 8 10 8 6 4 3 3 6 6 4 5 6 7 6 8 10 8 8 11 8 5 9 12 14 10 7 8 6 3 3 4 2 2 3 4 4 2 1 2 1 2 1 5 7 6 5 4 4 4 4 4 4 5 9 2 1 2 4 5 4 3 6 7 7 8 7 8 6 4 6
3 5 3 12 35 32 9 5 8 7 8 10 10 7 6 7 7 8 10 13 11 7 7 6 4 6 6 3 4 7 9 7 7 11 11 7 7 6 7 11 12 12 9 7 7 7 5 5 5 3 1 3 4 3 2 0 2 3 3 3 7 11 8 3 1 2 2 8 9 5 8 9 2 3 3 2 4 5 6 6 6 6 8 8 6 5 5 5
3 4 1 8 23 19 7 7 8 8 11 13 12 10 8 6 7 10 11 11 10 8 8 7 5 5 4 4 4 6 10 10 8 9 10 7 5 2 6 12 12 11 9 6 7 9 7 6 8 8 8 9 8 7 5 4 3 2 4 7 10 12 12 6 2 3 7 9 8 7 11 9 1 2 4 3 4 5 7 6 5 7 8 8 6 5 5 5
3 3 2 5 9 7 6 9 9 7 9 12 11 10 12 9 5 9 10 9 10 11 9 5 5 7 6 7 8 8 10 13 11 6 7 9 5 1 4 10 12 13 8 2 4 6 3 5 11 12 13 15 12 6 5 9 8 7 10 12 12 12 13 10 5 7 8 3 4 11 14 13 9 4 4 5 4 5 7 6 6 7 7 7 7 6 5 5
3 4 4 4 3 5 7 9 10 8 9 10 7 7 14 14 7 6 9 9 11 13 10 6 5 7 9 11 12 11 10 11 10 9 9 8 4 2 0 6 11 14 8 3 3 4 3 4 12 15 16 17 14 8 9 13 12 14 15 14 14 13 13 12 12 15 9 3 8 15 10 12 20 12 7 8 6 5 8 8 8 7 7 7 6 5 5 6
4 4 3 2 1 5 8 10 12 12 11 11 7 6 12 16 12 7 7 9 10 10 9 7 8 12 14 15 12 10 9 8 9 14 13 7 3 0 1 1 5 7 6 4 2 3 4 5 9 13 14 16 16 10 10 11 11 13 16 16 17 16 16 18 21 21 11 7 17 17 10 13 23 14 8 9 8 9 12 11 8 7 7 8 6 5 6 7
4 3 3 3 2 4 5 7 12 16 16 13 8 8 12 15 16 12 7 6 8 10 10 10 14 17 17 14 11 9 10 10 11 14 11 5 4 4 2 2 2 1 3 5 3 2 4 4 5 8 10 15 17 9 9 11 9 10 14 17 18 19 22 24 24 23 16 14 20 18 9 16 20 8 5 8 9 10 10 7 6 8 9 10 8 8 8 8
4 2 2 2 3 5 5 5 7 12 16 14 11 11 11 14 17 14 10 10 9 9 12 17 19 18 16 14 13 13 14 15 16 14 8 7 7 6 5 5 3 1 2 4 2 1 3 3 2 4 5 13 13 6 8 9 9 9 10 12 16 19 22 23 20 18 15 15 20 17 14 18 13 3 6 9 7 7 8 7 9 9 9 10 9 9 10 9
9 6 4 3 3 4 5 3 4 7 10 12 12 12 14 17 19 14 11 13 13 11 13 19 22 16 13 14 15 17 20 19 17 10 7 10 10 6 5 5 6 6 5 4 2 1 3 3 2 4 5 12 9 6 8 7 5 7 8 11 17 18 16 15 15 14 14 16 18 15 14 18 11 4 7 9 4 6 10 11 11 10 9 9 9 10 10 11
11 9 6 4 4 5 4 2 4 5 5 7 10 12 13 15 17 14 9 8 13 14 13 18 21 14 10 16 20 23 24 19 11 4 4 6 4 1 3 4 6 8 8 6 3 2 5 4 1 4 6 11 5 7 8 5 3 7 12 17 19 14 10 11 13 15 16 15 13 12 14 18 15 9 9 9 6 9 11 11 11 11 9 8 9 11 11 12
Wind_Direction
123 124 120 109 347 332 336 198 181 180 191 206 208 210 207 202 206 206 216 225 233 254 264 277 292 300 308 312 316 324 331 328 308 202 269 236 249 288 318 54 68 21 14 13 11 13 22 16 3 8 34 63 13 344 9 18 59 55 81 93 124 170 189 177 179 195 171 186 201 213 182 138 164 232 156 69 40 61 46 17 333 338 353 311 211 141 146 158
128 112 90 67 39 15 18 12 289 197 200 204 200 204 209 206 209 211 219 228 239 255 269 280 291 296 308 316 318 330 333 328 320 3 335 265 234 205 169 100 61 31 32 31 21 25 36 350 338 13 41 50 353 343 21 10 63 83 108 95 180 198 197 187 179 191 182 177 179 189 176 154 174 169 142 165 341 35 88 340 341 347 323 307 155 149 159 166
140 118 92 77 65 24 25 11 352 251 211 204 198 193 203 214 217 221 225 233 242 255 273 282 289 300 315 317 324 336 332 346 70 345 7 107 146 147 130 95 60 45 38 27 16 17 29 304 323 34 47 54 359 353 32 13 42 131 108 86 226 213 217 215 187 200 219 173 154 177 177 165 202 162 146 178 173 189 200 213 230 255 239 213 207 165 156 166
147 142 136 150 194 269 343 329 287 237 202 191 197 192 201 213 218 225 233 237 247 261 272 282 292 306 319 320 333 334 342 52 90 289 116 116 131 134 116 88 58 47 34 25 23 16 21 9 41 57 62 45 340 15 47 353 26 103 102 147 213 178 171 217 194 210 210 159 152 148 119 163 236 170 157 148 143 259 244 215 195 206 205 191 209 186 157 162
158 166 179 228 250 313 326 306 300 259 196 188 198 198 197 206 213 221 231 237 249 260 271 286 298 315 323 328 339 331 6 70 217 208 138 141 136 129 109 79 50 43 31 28 26 23 39 52 56 49 53 45 347 27 37 307 73 70 56 188 195 143 118 221 193 191 149 119 111 119 139 184 188 131 161 151 165 230 232 227 215 206 188 178 182 175 160 159
189 185 185 242 309 350 346 1 337 314 239 190 203 202 194 201 208 215 226 235 244 257 276 288 306 320 325 334 339 345 61 98 243 182 162 156 143 134 111 76 47 34 23 32 25 31 44 31 53 52 43 53 4 49 297 307 57 96 346 284 208 173 182 218 170 182 140 111 126 156 179 148 119 283 195 172 204 226 247 261 229 200 170 163 158 161 160 162
208 197 222 258 328 4 352 2 352 341 351 349 235 204 202 208 204 214 221 228 239 252 280 296 314 317 331 343 343 25 83 247 247 173 177 165 157 151 127 81 49 25 10 34 26 46 63 35 62 108 75 71 198 101 335 321 37 91 126 307 212 181 208 219 123 155 133 133 180 171 122 140 176 224 80 211 238 258 314 310 162 146 144 148 148 160 168 168
240 221 246 259 268 309 338 344 351 354 357 347 332 293 235 231 210 222 223 233 246 252 282 304 318 323 339 352 46 32 4 262 195 172 181 174 173 167 156 84 37 15 30 44 33 84 83 43 84 142 83 88 169 111 342 347 29 72 144 230 186 182 254 333 62 85 130 140 158 119 135 215 197 184 100 241 247 302 24 71 111 123 128 143 153 165 170 171
283 283 291 284 270 268 284 317 340 343 347 343 338 333 312 282 222 253 259 259 262 260 295 320 319 334 346 28 87 55 282 246 177 175 179 183 182 182 193 164 7 358 54 55 44 85 88 75 179 181 155 177 118 84 338 35 343 173 150 185 154 342 324 34 121 264 219 119 105 127 234 279 258 230 272 249 223 165 89 89 109 126 133 154 164 175 175 175
316 330 334 323 307 316 316 313 314 325 332 328 325 320 313 313 285 284 277 272 278 288 319 332 325 350 357 51 87 121 266 230 187 180 178 187 188 194 210 306 337 348 66 62 55 75 94 167 187 149 142 127 81 49 345 80 182 162 129 139 97 343 313 123 195 255 312 305 172 172 236 282 330 300 254 259 198 154 109 103 128 138 154 173 174 189 184 186
317 335 342 339 331 332 337 332 320 320 321 317 316 305 297 308 297 267 262 244 241 302 334 343 347 353 354 69 112 195 259 188 192 184 182 189 189 208 232 306 322 4 70 70 72 81 100 161 159 126 123 108 80 19 349 119 118 80 96 90 357 344 305 168 217 259 149 244 185 163 220 286 354 255 234 243 177 159 133 143 168 162 179 188 186 196 192 198
296 320 334 342 338 334 339 335 327 318 314 318 318 309 299 290 270 256 240 205 207 250 338 5 9 359 13 54 148 217 253 199 198 190 188 191 191 217 262 308 337 45 52 86 89 86 87 136 121 103 268 143 115 16 53 111 69 46 58 354 315 356 335 241 234 231 166 194 179 146 263 280 231 223 247 245 158 141 140 167 193 195 206 205 202 202 200 206
270 292 316 326 330 333 335 331 326 317 312 319 321 324 317 286 262 251 230 200 187 171 123 54 15 25 55 336 238 238 249 227 206 199 195 198 197 211 234 209 116 62 65 95 99 85 71 78 111 113 120 109 123 259 97 43 40 343 45 48 319 1 334 277 32 169 163 177 174 147 270 266 242 243 259 192 154 135 156 197 209 212 221 218 215 211 214 211
257 270 287 304 316 326 329 329 326 319 316 321 324 330 330 299 244 244 221 194 180 162 135 112 90 67 79 253 263 274 258 238 214 205 197 201 193 184 188 162 132 86 81 90 91 76 63 81 97 99 98 92 128 99 38 10 19 5 12 38 6 3 281 290 350 148 156 185 146 133 237 267 265 269 263 191 169 157 184 212 212 217 224 220 221 216 221 216
254 262 274 290 304 316 321 324 324 322 320 317 318 327 334 328 216 229 201 180 157 136 127 121 124 96 67 279 286 303 262 237 215 203 193 195 182 163 165 149 130 112 96 85 91 77 68 93 84 74 42 19 62 74 28 354 14 31 319 310 347 174 269 304 290 162 156 229 63 128 225 275 272 278 281 187 179 178 198 217 216 222 223 219 225 219 226 228
254 258 273 279 292 308 316 320 319 321 320 311 313 321 331 332 164 162 166 150 132 122 102 104 122 107 90 274 294 305 254 221 206 197 190 186 174 151 147 140 107 100 99 81 96 81 52 61 64 62 131 56 70 86 51 11 346 359 90 251 278 181 279 316 305 225 181 119 25 179 231 281 275 291 331 161 182 194 214 232 225 226 228 221 226 224 227 231
257 256 264 272 287 298 309 316 315 319 316 308 312 314 328 80 146 149 142 122 117 109 94 116 130 106 129 260 274 283 234 196 195 190 186 179 173 154 142 128 81 89 89 70 81 65 28 39 54 339 50 60 92 96 62 330 286 316 10 234 243 200 222 298 305 281 131 121 210 216 235 254 261 279 242 175 185 192 220 236 230 228 231 228 228 228 228 224
257 257 258 261 274 288 303 308 314 321 313 308 321 346 100 88 116 135 137 125 106 83 73 102 105 92 267 249 218 242 160 169 180 176 176 173 171 161 138 110 96 90 64 40 43 41 16 23 56 51 25 20 92 107 143 224 210 194 196 203 250 235 215 253 283 249 143 125 224 198 241 257 266 274 240 198 184 192 222 234 236 235 231 232 229 226 227 224
255 256 253 254 258 272 288 299 315 321 312 302 134 125 105 70 73 119 140 133 118 108 172 217 152 145 225 241 192 112 104 137 157 167 168 161 158 146 111 88 90 88 80 63 351 22 70 50 64 98 222 215 191 172 190 203 167 161 177 157 186 222 246 237 251 257 187 153 232 214 230 252 262 271 257 209 180 202 234 244 246 242 231 228 227 227 225 224
256 252 250 250 245 256 273 289 309 315 313 257 150 126 109 66 45 344 234 213 214 180 174 213 187 160 179 261 136 119 112 114 131 165 164 158 149 131 86 55 56 61 112 165 200 30 98 115 176 210 211 201 201 201 187 163 134 122 129 139 187 203 265 258 250 287 226 158 246 228 231 254 256 265 267 212 166 215 241 246 246 239 232 227 223 226 223 226
256 252 249 247 239 242 253 272 291 302 303 215 163 130 161 157 127 248 247 259 259 245 247 266 215 217 230 152 155 142 123 82 24 162 165 164 150 143 130 49 87 81 241 174 148 42 83 146 225 228 210 195 198 195 154 124 116 97 125 173 249 212 248 259 240 300 316 170 263 251 237 260 255 258 267 212 168 224 231 232 240 235 232 230 225 228 224 222
253 253 249 243 235 231 231 247 265 282 281 214 181 163 230 180 136 146 142 268 273 248 232 264 336 284 263 167 172 153 93 87 310 224 176 161 150 172 190 91 140 184 233 130 109 41 63 220 241 231 162 122 130 163 150 146 150 108 119 162 259 245 269 279 274 317 8 178 266 287 255 265 260 254 260 240 215 234 229 224 236 234 231 231 225 228 220 210
247 249 248 240 228 222 218 223 241 264 255 213 196 194 190 156 124 103 124 116 293 261 214 211 231 240 232 230 188 167 123 161 189 223 186 159 147 183 147 128 156 145 150 175 154 140 163 248 248 201 135 131 117 122 134 133 206 194 166 173 244 253 261 275 291 322 308 193 268 299 294 274 268 260 256 248 235 248 247 235 243 238 232 234 227 224 213 208
243 242 245 238 221 210 210 216 227 243 239 225 219 207 163 133 125 109 130 6 292 276 230 207 207 200 199 210 183 174 181 185 173 198 183 162 135 158 159 153 136 126 188 198 175 176 215 253 248 132 148 166 148 121 137 153 239 241 202 194 219 228 218 230 284 324 332 344 347 323 309 280 267 257 253 265 276 267 258 244 253 248 237 241 240 231 217 210
244 240 241 235 218 204 199 201 219 231 230 231 230 212 172 142 128 115 111 354 282 286 290 215 204 207 202 181 169 169 157 219 208 186 176 168 151 141 177 157 124 175 205 196 182 226 250 246 111 114 150 163 152 164 175 171 206 276 228 204 213 216 221 237 316 4 359 328 331 25 300 278 291 274 257 288 319 276 261 239 250 253 242 237 239 235 221 211
245 240 236 230 216 196 189 203 223 216 211 234 234 203 174 157 126 119 99 31 277 271 240 185 180 195 192 165 155 140 92 248 229 163 167 175 169 132 151 158 88 197 192 170 191 245 246 229 115 123 145 153 162 209 218 176 158 271 246 206 209 202 202 216 179 92 242 261 283 92 207 268 305 290 254 262 271 265 267 256 254 258 249 231 233 233 220 208
245 241 236 228 210 188 183 202 203 185 187 251 230 183 175 165 139 142 91 19 279 207 146 199 184 169 177 167 154 134 185 234 129 145 165 174 181 95 140 177 121 195 170 125 234 251 195 191 119 121 122 138 169 221 219 168 145 239 253 177 176 177 188 195 170 185 234 266 306 13 161 262 290 275 261 263 267 272 273 267 264 260 249 236 235 232 218 209
247 243 234 224 209 196 198 189 171 176 189 259 177 172 171 164 159 126 98 239 275 146 134 237 170 138 135 161 158 139 229 200 122 185 173 157 179 70 161 200 175 184 175 147 216 266 163 179 182 165 147 165 195 213 183 156 158 244 219 128 142 156 165 155 139 185 290 20 298 283 136 247 265 264 299 323 265 271 270 263 264 262 255 244 239 234 222 212
251 242 230 223 213 204 207 200 179 194 210 163 154 170 163 158 163 76 85 205 266 116 139 128 135 115 69 141 170 119 26 37 125 231 48 136 183 57 173 201 154 169 197 178 210 259 160 197 193 165 170 202 207 225 173 165 187 214 132 96 77 78 81 84 108 131 50 37 255 249 161 226 264 237 267 320 224 254 263 262 263 264 262 251 245 242 224 207
252 243 228 218 207 198 197 205 208 208 205 175 161 164 154 144 141 105 171 218 252 230 218 127 166 169 133 146 194 1 75 29 26 88 51 109 90 33 146 160 95 132 229 321 248 247 298 293 189 157 181 189 141 71 169 170 161 137 107 69 46 36 40 41 61 83 54 266 250 237 178 197 268 243 219 233 209 226 245 262 271 274 276 263 255 253 223 201
254 252 231 213 202 196 188 197 209 202 190 170 158 154 148 108 92 171 199 246 338 199 128 129 168 137 152 161 179 186 124 42 114 141 140 157 99 52 47 116 76 83 341 299 282 304 335 344 249 234 180 131 99 69 20 60 119 112 91 82 66 351 9 15 2 48 218 249 252 251 162 178 238 255 236 245 247 239 232 243 261 269 273 268 267 261 222 201
256 266 240 219 208 200 195 202 204 197 182 155 149 143 147 151 169 207 205 35 312 203 163 179 191 168 171 173 176 173 149 125 175 165 159 155 166 184 195 188 163 114 252 241 248 335 292 233 266 313 217 144 114 90 30 22 84 102 103 109 105 324 355 344 305 132 233 254 260 339 119 185 238 251 252 256 256 249 236 232 244 257 264 270 278 259 216 192
252 267 249 227 215 203 203 211 205 193 175 151 145 123 111 181 196 203 198 192 210 203 152 146 149 161 162 165 185 169 137 170 180 172 162 147 173 207 226 222 182 148 196 203 189 214 270 289 292 191 254 186 154 162 166 182 184 161 149 143 141 152 190 266 269 270 262 269 285 266 179 241 267 258 241 237 239 243 246 246 245 251 256 261 269 245 207 196
247 252 253 232 221 213 208 208 204 189 170 152 147 149 182 205 205 194 203 214 211 35 61 115 106 132 155 171 203 167 154 219 180 155 158 152 170 210 226 233 211 145 103 150 176 184 216 278 217 179 209 187 181 192 167 139 165 186 157 140 159 163 168 215 221 230 258 285 300 279 202 200 207 258 244 234 247 258 262 271 269 265 259 252 258 241 209 206
249 244 256 241 225 218 209 206 203 184 163 151 158 171 186 204 205 198 212 220 210 33 25 84 100 127 183 255 260 184 173 218 177 150 165 173 188 203 198 207 201 169 138 180 212 167 200 260 240 207 191 170 181 196 119 109 147 222 114 118 191 186 166 208 209 180 194 302 295 237 223 216 206 270 271 252 270 273 266 277 277 272 275 277 262 243 214 210
253 246 251 243 228 219 208 205 197 177 160 150 173 185 199 207 197 187 200 200 190 119 96 78 79 127 200 226 244 213 192 135 157 160 195 204 219 210 200 210 196 186 185 186 195 153 179 271 279 358 14 177 184 177 128 137 177 164 142 177 208 170 145 177 269 70 83 268 268 200 235 287 315 282 275 246 254 265 271 270 262 264 281 299 268 242 217 217
246 248 244 238 233 221 213 205 185 171 163 157 182 196 208 220 213 177 181 167 158 139 133 179 182 162 190 199 212 210 194 112 157 174 190 195 238 212 204 227 196 194 201 186 192 200 168 256 290 116 182 257 242 123 72 17 132 129 182 202 150 79 104 116 247 343 41 251 271 222 233 276 291 273 306 284 234 252 258 256 257 268 277 276 267 245 213 217
233 244 249 241 231 220 216 203 180 170 174 177 195 208 201 218 222 198 184 131 132 157 181 209 199 171 180 192 204 193 182 179 177 189 190 183 237 209 190 211 202 200 205 184 198 241 163 220 299 76 186 281 3 104 62 351 74 131 183 186 125 135 215 120 172 232 201 247 286 288 252 243 202 228 274 216 217 232 249 253 255 262 261 260 265 251 208 209
229 234 267 238 223 218 210 195 179 177 205 187 202 215 201 219 220 201 189 147 139 170 199 216 200 174 183 183 179 173 186 192 174 182 195 185 231 213 183 194 209 203 201 183 193 233 147 200 266 340 217 301 15 158 182 221 27 64 113 147 119 158 178 163 167 170 170 224 284 308 301 249 218 209 199 212 219 215 236 250 246 251 252 252 260 251 205 203
223 227 265 200 203 206 195 184 177 196 217 196 205 209 205 218 214 206 215 198 143 171 211 226 202 180 193 185 174 171 193 204 182 187 207 191 216 241 194 189 184 182 185 183 195 192 127 211 234 334 341 158 196 217 191 180 169 156 166 172 182 140 107 159 205 133 137 169 219 290 292 263 237 204 192 206 215 206 219 232 235 248 250 251 261 256 213 204
213 241 233 169 180 183 177 174 185 205 207 209 216 218 218 211 186 204 210 194 204 222 209 225 213 202 194 183 193 187 182 201 194 196 226 205 209 239 207 183 162 141 145 170 203 205 184 202 179 152 220 204 220 244 203 190 184 179 188 191 187 173 147 174 236 200 125 172 183 200 275 266 241 192 199 206 206 208 215 215 228 253 256 264 278 250 212 207
231 248 202 171 176 170 162 181 216 195 207 212 217 221 213 198 178 197 196 188 222 245 226 229 218 214 199 183 197 182 166 196 199 198 231 223 216 227 214 184 164 153 151 172 202 201 157 120 158 186 217 219 237 268 205 201 193 160 201 201 182 174 165 172 210 216 167 220 182 129 272 273 252 165 208 238 237 226 212 197 223 258 266 277 284 253 216 212
244 254 219 175 175 167 159 234 202 197 227 215 218 216 189 207 199 177 182 190 205 212 216 232 196 206 218 190 177 173 176 198 200 204 224 231 227 231 206 181 166 158 163 179 197 193 116 122 182 225 311 305 304 331 16 78 106 172 249 184 164 189 190 172 190 185 165 208 188 128 256 264 283 64 241 266 276 271 240 207 219 264 276 274 275 263 225 213
254 254 295 190 181 171 166 222 198 209 222 219 224 208 201 221 200 180 187 193 198 195 206 224 193 203 221 178 166 187 188 197 211 214 219 228 236 224 178 180 177 170 181 188 180 178 177 184 183 176 273 311 317 310 296 214 147 198 222 192 191 198 188 153 99 122 194 222 189 171 246 246 264 330 295 314 319 292 264 233 209 244 268 270 271 261 226 208
272 241 270 205 194 184 188 213 207 212 210 218 225 204 205 224 199 198 198 194 203 198 203 221 190 179 198 181 199 207 192 202 218 215 216 231 259 251 179 188 189 194 206 203 182 178 177 185 181 181 206 224 226 226 219 182 145 194 215 200 204 198 184 188 200 182 228 229 182 189 242 247 276 319 285 320 328 282 272 269 238 233 252 268 274 260 231 206
267 242 185 198 210 209 210 207 213 221 208 214 222 208 209 216 199 201 198 197 211 207 213 226 170 169 191 193 212 223 209 215 222 214 214 221 233 287 187 185 194 211 215 161 164 169 150 192 194 194 207 217 225 220 153 134 145 204 215 201 203 203 194 197 209 212 219 217 198 219 234 252 261 235 237 276 266 252 272 283 267 251 254 263 262 252 236 214
248 247 211 191 212 225 217 207 208 218 210 202 201 200 211 216 214 197 195 203 208 205 216 227 183 187 194 193 210 224 215 216 224 227 227 218 219 309 229 175 201 214 200 138 167 151 118 206 203 203 212 223 234 223 152 147 169 200 208 202 203 203 193 196 214 221 202 133 249 236 204 242 258 240 216 245 241 244 262 254 249 254 255 253 247 235 230 224
233 250 242 226 241 222 217 211 207 212 216 207 194 195 211 216 216 203 194 208 212 203 206 215 211 211 205 199 206 217 211 207 220 228 230 221 197 286 18 154 226 220 180 174 210 148 155 213 210 211 220 231 238 220 169 172 185 195 203 204 203 198 193 202 217 223 201 179 244 241 173 215 253 247 212 222 216 225 242 242 242 246 247 248 236 224 233 229
227 256 267 270 270 247 248 233 215 214 216 213 207 206 209 213 216 212 195 199 214 206 198 211 217 216 215 209 204 210 209 204 217 224 216 194 181 176 176 215 265 312 157 180 196 158 187 214 203 205 223 241 244 219 175 192 202 202 207 206 202 198 199 207 217 222 214 213 241 250 224 236 254 253 220 219 205 224 248 254 242 234 238 243 233 228 238 232
214 233 251 264 259 259 282 275 230 221 216 210 212 212 208 212 215 212 200 196 202 196 198 216 222 217 215 215 213 222 219 211 223 224 187 175 202 194 189 196 170 101 175 186 190 227 211 204 147 143 213 248 247 201 169 195 206 217 223 217 213 210 207 212 218 220 219 229 244 254 261 260 257 227 246 244 210 231 266 264 244 235 233 237 235 234 240 239
231 252 265 308 298 250 253 250 234 239 223 209 211 210 208 214 213 209 207 204 201 194 194 213 223 222 218 216 218 229 230 223 227 225 176 188 209 199 199 201 161 156 177 178 166 163 181 194 75 105 212 247 237 165 169 185 194 229 239 226 222 218 211 211 216 215 210 220 237 246 255 259 251 209 252 259 217 229 253 252 252 253 238 231 236 239 240 242
227 249 249 263 277 244 240 255 239 244 241 221 218 214 213 214 208 207 214 209 208 209 202 209 219 220 216 217 219 226 232 229 223 208 177 196 212 148 167 175 156 161 166 161 165 169 160 168 147 140 209 250 236 146 154 154 171 238 238 226 221 213 201 208 219 223 214 209 221 227 234 248 253 245 252 260 244 236 243 243 248 255 249 235 234 238 241 242